Location: Unspecified
(0.0000°N, 0.0000°E)
Time: 12:32:48
(UTC+00:00)

Vanguard 2 - Pass Details

Date: 08 December 2017
Orbit: 553 x 2939 km, 32.9° (Epoch: 18 June)

Event Time Altitude Azimuth Distance (km) Brightness Sun altitude
Rises 13:17:04 0° 238° (WSW) 6,040 12.5 59.2°
Reaches altitude 10° 13:21:37 10° 239° (WSW) 4,688 12.2 58.5°
Maximum altitude 13:33:44 76° 323° (NW) 1,477 10.0 56.4°
Drops below altitude 10° 13:40:43 10° 48° (NE) 2,811 10.2 55.1°
Sets 13:42:50 0° 50° (NE) 3,541 10.6 54.7°
